Flag for Malaysia Weather past 2 weeks in Johor Bahru, Malaysia

Now
75 °F

Passing clouds.


Feels Like: 74 °F
Forecast: 74 / 91 °F
Wind: 1 mph from Northeast

Location: Johore Bharu / Senai

Current Time: Mar 6, 2015 at 3:07:04 AM

Latest Report: Mar 6, 2015 at 2:00 AM


Visibility: N/A

Pressure: 29.89 "Hg

Humidity: 94%

Dew point: 73 °F

Location of Johor BahruLocation

Historic Weather in Johor Bahru — Graph

°F

Johor Bahru temperature yesterday

Maximum temperature yesterday: 93 °F (at 4:00 PM)
Minimum temperature yesterday: 73 °F (at 4:00 AM)
Average temperature yesterday: 82 °F

Past Weeks' High & Low Weather Summary

 TemperatureHumidityPressure
High97 °F (Mar 4, 3:00 PM)100% (Feb 19, 7:00 AM)29.95 "Hg (Feb 19, 7:00 AM)
Low72 °F (Feb 21, 3:00 AM)50% (Mar 4, 3:00 PM)29.71 "Hg (Feb 27, 4:00 PM)
Average81 °F83%29.84 "Hg
* Reported Feb 19 2:00 AM — Mar 6 2:00 AM, Johor Bahru, Weather by CustomWeather, © 2015

Note: Actual official high and low records may vary slightly from our data, if they occured in-between our weather recording intervals... More about our weather records

Advertising

Johor Bahru weather history for previous 24 hours

 ConditionsComfort  
Time TempWeatherWind HumidityBarometerVisibility
2:00 AM
Fri, Mar 6
75 °FPassing clouds.1 mph94%29.89 "HgN/A
1:00 AM75 °FPassing clouds.1 mph94%29.92 "HgN/A
12:00 AM77 °FPassing clouds.No wind89%29.92 "HgN/A
11:00 PM
Thu, Mar 5
77 °FPassing clouds.2 mph89%29.89 "HgN/A
10:00 PM79 °FPassing clouds.2 mph84%29.89 "HgN/A
9:00 PM81 °FPassing clouds.5 mph79%29.86 "HgN/A
8:00 PM82 °FPassing clouds.3 mph74%29.83 "HgN/A
7:00 PM84 °FPartly sunny.10 mph74%29.80 "HgN/A
6:00 PM88 °FPartly sunny.12 mph62%29.77 "HgN/A
5:00 PM91 °FPartly sunny.9 mph56%29.77 "HgN/A
4:00 PM93 °FPartly sunny.7 mph53%29.77 "HgN/A
3:00 PM91 °FPartly sunny.7 mph56%29.80 "HgN/A
2:00 PM90 °FPartly sunny.7 mph59%29.83 "HgN/A
1:00 PM90 °FPartly sunny.7 mph63%29.86 "HgN/A
12:00 PM88 °FPartly sunny.6 mph66%29.89 "HgN/A
11:00 AM86 °FPartly sunny.6 mph70%29.92 "HgN/A
10:00 AM82 °FPartly sunny.3 mph74%29.92 "HgN/A
9:00 AM79 °FPartly sunny.2 mph84%29.89 "HgN/A
8:00 AM73 °FPartly sunny.1 mph100%29.89 "Hg6 mi
7:00 AM75 °FPassing clouds.No wind94%29.86 "HgN/A
6:00 AM73 °FPassing clouds.1 mph100%29.86 "Hg6 mi
5:00 AM75 °FPassing clouds.1 mph94%29.86 "HgN/A
4:00 AM73 °FPassing clouds.1 mph100%29.83 "HgN/A
3:00 AM75 °FPartly cloudy.No wind94%29.86 "HgN/A
Weather by CustomWeather, © 2015

See weather overviewHow to use our weather pages